Weather in Sudachye

Russia / Astrakhan Oblast     45°51′27″N   47°33′31″E
temp.,
°C
wind,
m/s
gust,
m/s
humid.,
%
clouds,
%
prec.,
mm/h
press.,
hPa
HPBL,
m
1 august, sun
sun101:00+25s3462100 0.0 101168
04:00+24se226565 0.0 101113
07:00+26se245557 0.0 1011190
10:00+31sse55375 0.0 10121115
13:00+32se343624 1.9 10111008
16:00+34se55292 1.9 10111053
19:00+31sse55340 0.0 1010449
22:00+27sse34540 0.0 101166
2 august, mon
mon201:00+25sse225725 0.0 101111
04:00+27e225099 0.0 101141
07:00+27e34405 0.0 101299
10:00+34ese4622100 0.0 1012925
13:00+34se4522100 0.0 1012685
16:00+37se551596 0.0 10101284
19:00+33se552470 0.0 1010354
22:00+27se3458100 0.0 101149
3 august, tue
tue301:00+27sse335648 0.0 101034
04:00+26se22482 0.0 101011
07:00+28wnw00405 0.0 101111
10:00+36ese34160 0.0 1011886
13:00+38sse66120 0.0 10111403
16:00+39se55110 0.0 10101237
19:00+35se45160 0.0 1010341
22:00+29sse44420 0.0 101157
4 august, wed
wed401:00+27s45490 0.0 101062
04:00+26sw22460 0.0 101011
07:00+28s22360 0.0 101137
10:00+35s34190 0.0 1011702
13:00+39sse55130 0.0 10101915
16:00+38sse75135 0.0 1010970
19:00+33sse78245 0.0 1010324
22:00+28ssw34445 0.0 101153
5 august, thu
thu501:00+27sw224181 0.0 101111
04:00+26e22374 0.0 101011
07:00+28n35389 0.0 1011151
10:00+33n101134100 0.0 10131217
13:00+32nne81034100 0.0 1013974
16:00+32n753415 0.0 10131283
19:00+33nne23310 0.0 10121513
22:00+28ne33427 0.0 101343